Weather Roundup
Issued by NWS

Home | Current Version | Previous Version | Graphics & Text | Print | Product List | Glossary Off
Versions: 1 2 3 4 5 6 7 8 9 10 11 12 13 14 15 16 17 18 19 20 21 22 23 24 25 26 27 28 29 30 31 32 33 34 35 36 37 38 39 40 41 42 43 44 45 46 47 48 49 50

309
NZUS93 KARX 220210
HRRWXR

CURRENT HOURLY OBSERVATIONS ACROSS
MUCH OF THE UPPER MISSISSIPPI VALLEY
NATIONAL WEATHER SERVICE LA CROSSE WI
900 PM CDT TUE MAR 21 2017


...SOUTHEAST MINNESOTA...


CITY           SKY/WX    TMP DP  RH WIND       PRES   REMARKS
ROCHESTER      CLEAR     28  14  55 N12       30.43R WCI  18
ROCHESTER/MAYO FAIR      31  10  43 N5        30.45R WCI  26
WINONA         CLEAR     34  12  40 N9        30.46R WCI  26
AUSTIN         CLEAR     28  14  54 N9        30.43R WCI  20
ALBERT LEA     CLEAR     28  18  64 N8        30.44R WCI  20
DODGE CENTER   PTCLDY    28  18  64 N8        30.44R WCI  20
PRESTON        CLEAR     29  14  55 N9        30.42R WCI  20
OWATONNA       CLEAR     28  10  47 N8        30.46R WCI  20
FARIBAULT      CLEAR     28  12  50 N5        30.47R WCI  23
$$

...ELSEWHERE IN MINNESOTA...


CITY           SKY/WX    TMP DP  RH WIND       PRES   REMARKS
MINNEAPOLIS    PTCLDY    29   5  36 N9        30.50R WCI  20
INTNL FALLS    CLEAR     19   0  43 N8        30.54R WCI   9
DULUTH         CLEAR     21   3  45 NW5       30.48R WCI  15
RED WING       CLEAR     30   3  31 N6        30.48R WCI  24
REDWOOD FALLS  CLEAR     30  13  49 VRB6      30.49R WCI  24
MANKATO        NOT AVBL
WORTHINGTON    CLEAR     29  22  75 N12       30.46R WCI  19
FAIRMONT       CLEAR     31  21  66 N8        30.47R WCI  23
$$

...SOUTHWEST WISCONSIN...


CITY           SKY/WX    TMP DP  RH WIND       PRES   REMARKS
LA CROSSE      CLEAR     34  11  38 N10       30.44R WCI  26
PRAIRIE DU CHI CLEAR     38  10  31 N12       30.38R WCI  31
BOSCOBEL       CLEAR     38  12  34 N9        30.39R WCI  31
LONE ROCK      CLEAR     37  13  37 N12G22    30.39R WCI  29
PLATTEVILLE    CLEAR     33  20  57 N10       30.35R WCI  25
FORT MC COY    CLEAR     32  13  44 N7        30.44R WCI  26
CAMP DOUGLAS   PTCLDY    30  14  51 N12       30.40R WCI  21
MAUSTON-NEW LI CLEAR     33  16  51 N6        30.40R WCI  27
VIROQUA        FAIR      32  14  46 N9        30.38R WCI  24
WIS DELLS      CLEAR     34  16  46 N7        30.37R WCI  28
$$

...ELSEWHERE IN WISCONSIN...


CITY           SKY/WX    TMP DP  RH WIND       PRES   REMARKS
MILWAUKEE      CLOUDY    33  23  66 NE16G24   30.37R WCI  23
MADISON        CLEAR     34  18  52 N6        30.35R WCI  29
GREEN BAY      CLEAR     29  15  56 N21       30.43R WCI  16
EAU CLAIRE     CLEAR     28   8  43 N7        30.46R WCI  21
BLACK RVR FLS  FAIR      31   8  37 N6        30.43R WCI  25
MEDFORD        CLEAR     24   9  53 N12       30.42R WCI  13
WAUSAU         CLEAR     24   8  50 N8G16     30.42R WCI  15
WIS RAPIDS     CLEAR     28  13  53 NE13      30.43R WCI  17
MARSHFIELD     CLEAR     27   9  46 N12       30.41R WCI  17
RICE LAKE      CLEAR     27   7  44 CALM      30.49R
$$

...NORTHEAST IOWA...


CITY           SKY/WX    TMP DP  RH WIND       PRES   REMARKS
WATERLOO       CLEAR     32  19  58 N10       30.40R WCI  24
DUBUQUE        CLEAR     39  13  34 N13       30.33R WCI  31
DECORAH        CLEAR     32  16  51 N12       30.39R WCI  23
MASON CITY     CLEAR     26  19  74 N9        30.43R WCI  17
CHARLES CITY   CLEAR     32  19  59 N10       30.42R WCI  24
OELWEIN        CLEAR     30  21  69 NW8       30.39R WCI  23
$$

...ELSEWHERE IN IOWA...


CITY           SKY/WX    TMP DP  RH WIND       PRES   REMARKS
DES MOINES     MOCLDY    43  22  43 N15       30.39R
IOWA CITY      CLEAR     44  21  40 N9        30.36R
FORT DODGE     CLEAR     34  19  55 N9        30.43R WCI  26
MARSHALLTOWN   CLEAR     34  23  64 N12       30.38R WCI  25
CEDAR RAPIDS   CLEAR     37  20  50 N13       30.35R WCI  29
$$

...NORTHERN ILLINOIS...


CITY           SKY/WX    TMP DP  RH WIND       PRES   REMARKS
CHICAGO-OHARE  MOCLDY    36  26  67 NE17G23   30.32R WCI  26
CHICAGO-MIDWAY PTCLDY    36  26  67 NE21      30.32R WCI  25
MOLINE         CLEAR     45  19  35 N8G18     30.30R
ROCKFORD       CLEAR     42  17  36 N17       30.33R
PEORIA         CLEAR     41  31  67 NW3       30.28R
$$

NOTE: "FAIR" INDICATES FEW OR NO CLOUDS BELOW 12,000 FEET WITH NO
SIGNIFICANT WEATHER AND/OR OBSTRUCTIONS TO VISIBILITY. WIND
SPEEDS ARE IN MILES-PER-HOUR.




USA.gov is the U.S. government's official web portal to all federal, state and local government web resources and services.